GAOFEN-14 02 (66175 NORAD) Tracking and Keplerian Element Data

This shows tracking and keplerian element data for the satellite.

Feedback or suggestion? Click here.




ElementValue
Catalog66175
NameGAOFEN-14 02
Epoch Orbit841
Epoch Day354.25908502
Epoch Year2025
RAAN66.2278
Inclination97.4344
Eccentricity0.0001673
Argument of Perigee97.4944
Mean Anonmoly262.6485
Mean Motion15.25690657
Decay Rate5.261E-05
L11 66175U 25242A 25354.25908502 .00005261 00000+0 20940-3 0 9991
L22 66175 97.4344 66.2278 0001673 97.4944 262.6485 15.25690657 8415



Live tracking and technical data element details for GAOFEN-14 02 (NORAD 66175). GAOFEN-14 02 can be tracked NOW for your location showing map with azimuth and elevation plus other details from your city location.







IsCatalogInMostPopularTable: catalog: 66175, numindb: 6
Update: records affected: 1



GetName: 66175 GAOFEN-14 02

Hit Count: updated at: Sat, 11 Apr 2026 21:34:36 GMT